[[{"header":{"parameterUnit":"m.s-1","parameterCategory":1,"la1":30.2991,"la2":30.254,"lo1":-89.0895,"lo2":-89.0444,"dy":0.0017,"dx":0.0017,"nx":28,"ny":28,"refTime":"2023-07-24T09:00:00:Z","depth":0,"parameterNumber":2,"parameterNumberName":"U-component_of_WINDS"},"data":[0,0,0,0,0,0,0,0,0,0,0,0,0,0,0,0,0,0,0,0,0,0,0,0,0,0,0,0,0,0,0,0,0,0,0,0,0,0,0,0,0,0,0,0,0,0,0,0,0,0,0,0,0,0,0,0,0,0,1.1277,1.1279,0,1.1478,1.1481,1.1483,1.1562,1.1561,1.1561,1.156,1.1769,1.1775,1.1781,0,0,0,0,0,0,0,0,0,0,0,0,0,1.0962,1.0967,1.1277,1.1279,1.1282,1.1478,1.1481,1.1484,1.1562,1.1561,1.1561,1.156,1.1767,1.1774,1.1781,0,0,0,0,0,0,0,0,0,0,0,0,0,1.1125,1.0969,1.1276,1.1344,1.1353,1.1477,1.1481,1.1484,1.1562,1.1561,1.1561,1.156,1.1765,1.1773,1.1782,1.1855,0,0,1.181,1.1814,0,0,0,0,0,0,0,0,1.1115,1.1136,1.1332,1.134,1.1349,1.1494,1.1446,1.1609,1.1562,1.1483,1.156,1.1559,1.1678,1.1694,1.1734,1.1865,1.1874,1.1811,1.1817,1.182,1.1823,0,0,0,0,0,0,0,1.1104,1.1128,1.1357,1.1335,1.1345,1.1366,1.1388,1.1478,1.1583,1.149,1.1496,1.1518,1.1683,1.1725,1.174,1.1877,1.1811,1.1819,1.1824,1.1828,1.2079,1.208,0,0,0,0,0,0,1.1081,1.1118,1.135,1.1363,1.1228,1.1372,1.1397,1.1449,1.1582,1.1601,1.1519,1.1521,1.171,1.1729,1.1747,1.1843,1.182,1.1829,1.1834,1.2078,1.2079,1.2081,0,0,0,0,0,0,1.1074,1.1101,1.1342,1.1242,1.1274,1.1378,1.1436,1.1453,1.1495,1.1604,1.1623,1.1543,1.171,1.1735,1.1828,1.1851,1.1833,1.1841,1.2076,1.2078,1.208,1.2032,0,0,0,0,0,0,1.1064,1.1098,1.1126,1.1242,1.1279,1.1418,1.1437,1.1457,1.1511,1.1516,1.1632,1.165,1.1711,1.1814,1.1837,1.1863,1.1848,1.2075,1.2077,1.2079,1.2032,1.2032,1.2032,0,0,0,0,0,1.1053,1.1104,1.1127,1.1154,1.1316,1.1419,1.1441,1.151,1.1512,1.1542,1.1612,1.1646,1.1844,1.1823,1.1849,1.1879,1.2074,1.2077,1.2079,1.2032,1.2032,1.2032,0,0,0,0,0,0,1.0989,1.1121,1.1147,1.1238,1.1316,1.1432,1.1472,1.1507,1.1588,1.1589,1.1672,1.1698,1.1785,1.1841,1.1815,1.1957,1.1962,1.197,1.1917,1.1918,1.1918,1.1903,1.1856,0,0,0,0,0,1.0985,1.1057,1.1169,1.1238,1.1276,1.1367,1.1414,1.1461,1.1546,1.158,1.1657,1.1739,1.1821,1.1872,1.1953,1.2041,1.2068,1.2074,1.2074,1.2073,1.208,1.2133,1.2137,1.209,1.209,1.209,0,0,1.0978,1.1059,1.1099,1.1227,1.1293,1.1367,1.1394,1.1471,1.1527,1.1592,1.1685,1.1744,1.1842,1.1933,1.1977,1.1983,1.2099,1.2077,1.2075,1.2083,1.2136,1.214,1.2144,1.2092,1.2091,1.2091,0,0,1.1003,1.1071,1.1137,1.1203,1.1304,1.1364,1.1379,1.1491,1.1532,1.1627,1.1678,1.1746,1.1883,1.1951,1.2004,1.2055,1.2091,1.2079,1.208,1.213,1.2134,1.2137,1.2158,1.2164,1.2085,1.2085,1.2085,0,1.0982,1.1095,1.1166,1.1241,1.1296,1.1358,1.1426,1.1487,1.1608,1.1645,1.1649,1.1824,1.1894,1.2003,1.2016,1.2055,1.2077,1.2067,1.2127,1.2132,1.2136,1.2157,1.2164,1.2083,1.2083,1.2084,1.2084,0,1.1065,1.1142,1.1183,1.1299,1.1359,1.1429,1.1512,1.1564,1.1606,1.1666,1.1762,1.1848,1.1948,1.1977,1.2018,1.2092,1.2093,1.2111,1.2118,1.2138,1.2158,1.2166,1.208,1.2081,1.2082,1.2082,0,0,1.1056,1.121,1.1225,1.1279,1.1394,1.1456,1.1529,1.1627,1.167,1.1752,1.1817,1.1932,1.195,1.201,1.2059,1.2103,1.2141,1.2116,1.212,1.2119,1.223,1.2217,1.2225,1.2164,1.2166,1.2168,1.2223,0,1.1098,1.1232,1.1299,1.1405,1.1478,1.1538,1.1603,1.1681,1.1739,1.1811,1.1875,1.1956,1.1973,1.2009,1.2055,1.2126,1.2164,1.2123,1.2228,1.2231,1.2203,1.2235,1.2222,1.2269,1.2231,1.2232,1.2233,0,1.1165,1.1246,1.1359,1.1468,1.1501,1.1557,1.1653,1.1719,1.181,1.185,1.1916,1.1964,1.2046,1.2046,1.216,1.2131,1.2178,1.2219,1.2222,1.2236,1.2234,1.2251,1.2286,1.2294,1.2246,1.2245,1.2245,0,1.1149,1.1287,1.1373,1.1417,1.1545,1.1583,1.1639,1.1729,1.1783,1.1866,1.1903,1.1994,1.2045,1.2115,1.2188,1.2181,1.2296,1.2301,1.2333,1.2331,1.2355,1.2353,1.24,1.2382,1.2382,1.2382,1.2382,0,1.119,1.1257,1.1368,1.142,1.1498,1.1574,1.1649,1.1709,1.1789,1.1855,1.1913,1.1974,1.2065,1.2139,1.2196,1.2283,1.2305,1.234,1.2355,1.2336,1.2332,1.2369,1.2368,1.2384,1.2384,1.2383,1.2383,0,1.1186,1.1262,1.136,1.1473,1.1503,1.1555,1.1653,1.1707,1.1768,1.1852,1.1876,1.1972,1.2062,1.214,1.2259,1.2297,1.2387,1.2404,1.2356,1.2365,1.2392,1.2389,1.2465,1.248,1.2451,1.2451,1.2451,0,1.1208,1.1261,1.138,1.1428,1.1483,1.156,1.1615,1.1693,1.1749,1.1857,1.1899,1.1992,1.2071,1.2211,1.2293,1.2384,1.2405,1.2425,1.2419,1.2399,1.2408,1.2404,1.2411,1.2425,1.2425,1.2425,1.2425,0,1.124,1.1275,1.1353,1.1444,1.1509,1.1585,1.1662,1.1699,1.1791,1.1852,1.1943,1.2004,1.2125,1.2218,1.2318,1.2377,1.2418,1.2426,1.2439,1.2421,1.2392,1.241,1.2358,1.2425,1.2425,1.2425,1.2425,1.2425,1.1251,1.1302,1.1393,1.1478,1.1545,1.1616,1.1673,1.1741,1.1819,1.1923,1.1964,1.2058,1.2149,1.2288,1.2346,1.2422,1.2429,1.2446,1.2451,1.2455,1.2452,1.2378,1.244,1.244,1.244,1.244,1.2441,0,1.1287,1.1349,1.1426,1.1533,1.16,1.1631,1.1719,1.1773,1.1855,1.1936,1.2012,1.2119,1.2209,1.2297,1.2393,1.2437,1.2458,1.2459,1.2458,1.2471,1.244,1.242,1.2441,1.2441,1.2441,1.2441,1.2441,1.2441,1.1314,1.1402,1.1447,1.1569,1.1631,1.1723,1.1771,1.1837,1.1902,1.2018,1.2093,1.215,1.2235,1.2337,1.2422,1.2446,1.2479,1.2476,1.2505,1.2474,1.2473,1.2472,1.2454,1.2482,1.2482,1.2531,1.2531,1.2531]},{"header":{"parameterUnit":"m.s-1","parameterCategory":1,"la1":30.2991,"la2":30.254,"lo1":-89.0895,"lo2":-89.0444,"dy":0.0017,"dx":0.0017,"nx":28,"ny":28,"refTime":"2023-07-24T09:00:00:Z","depth":0,"parameterNumber":3,"parameterNumberName":"V-component_of_WINDS"},"data":[0,0,0,0,0,0,0,0,0,0,0,0,0,0,0,0,0,0,0,0,0,0,0,0,0,0,0,0,0,0,0,0,0,0,0,0,0,0,0,0,0,0,0,0,0,0,0,0,0,0,0,0,0,0,0,0,0,0,2.2647,2.2647,0,2.268,2.268,2.268,2.2694,2.2694,2.2694,2.2694,2.2724,2.2724,2.2725,0,0,0,0,0,0,0,0,0,0,0,0,0,2.2594,2.2595,2.2647,2.2648,2.2648,2.268,2.268,2.268,2.2694,2.2694,2.2694,2.2694,2.2723,2.2724,2.2725,0,0,0,0,0,0,0,0,0,0,0,0,0,2.2621,2.2595,2.2647,2.2659,2.266,2.2679,2.268,2.2681,2.2694,2.2694,2.2694,2.2694,2.2723,2.2724,2.2725,2.2735,0,0,2.2729,2.273,0,0,0,0,0,0,0,0,2.2619,2.2623,2.2656,2.2658,2.2659,2.2683,2.2672,2.2699,2.2694,2.2681,2.2694,2.2694,2.271,2.2712,2.2718,2.2736,2.2738,2.2729,2.273,2.2731,2.2731,0,0,0,0,0,0,0,2.2617,2.2621,2.266,2.2657,2.2659,2.2661,2.2665,2.2677,2.2695,2.2682,2.2683,2.2687,2.2711,2.2717,2.2719,2.2738,2.2729,2.2731,2.2731,2.2732,2.2766,2.2766,0,0,0,0,0,0,2.2614,2.262,2.2659,2.2661,2.2639,2.2662,2.2666,2.2675,2.2695,2.2698,2.2687,2.2688,2.2715,2.2718,2.272,2.2733,2.2731,2.2732,2.2733,2.2765,2.2766,2.2766,0,0,0,0,0,0,2.2613,2.2617,2.2658,2.2641,2.2646,2.2663,2.2673,2.2676,2.2683,2.2699,2.2702,2.2691,2.2715,2.2718,2.2731,2.2734,2.2733,2.2734,2.2765,2.2765,2.2766,2.2758,0,0,0,0,0,0,2.2611,2.2617,2.2621,2.2641,2.2647,2.2669,2.2673,2.2677,2.2685,2.2686,2.2703,2.2706,2.2715,2.273,2.2733,2.2736,2.2735,2.2765,2.2765,2.2766,2.2758,2.2758,2.2758,0,0,0,0,0,2.2609,2.2617,2.2621,2.2626,2.2653,2.2669,2.2673,2.2684,2.2685,2.2689,2.27,2.2705,2.2733,2.2731,2.2734,2.2738,2.2765,2.2765,2.2766,2.2758,2.2758,2.2758,0,0,0,0,0,0,2.2596,2.262,2.2625,2.2639,2.2652,2.2672,2.2677,2.2684,2.2696,2.2696,2.2709,2.2712,2.2724,2.2732,2.2729,2.2748,2.275,2.2751,2.2743,2.2743,2.2743,2.274,2.2736,0,0,0,0,0,2.2595,2.2607,2.2627,2.2638,2.2644,2.2659,2.2667,2.2675,2.2688,2.2694,2.2705,2.2717,2.2729,2.2736,2.2748,2.2759,2.2763,2.2764,2.2764,2.2763,2.2764,2.2771,2.2772,2.2767,2.2767,2.2767,0,0,2.2592,2.2607,2.2614,2.2635,2.2646,2.2658,2.2664,2.2676,2.2685,2.2695,2.2709,2.2718,2.2732,2.2744,2.275,2.2751,2.2766,2.2764,2.2764,2.2764,2.2772,2.2772,2.2772,2.2767,2.2767,2.2767,0,0,2.2594,2.2606,2.2617,2.2628,2.2646,2.2656,2.2658,2.2677,2.2684,2.2698,2.2706,2.2716,2.2736,2.2746,2.2753,2.2759,2.2765,2.2763,2.2762,2.2769,2.2769,2.277,2.2772,2.2773,2.2763,2.2763,2.2763,0,2.2588,2.2608,2.2621,2.2634,2.2643,2.2654,2.2665,2.2675,2.2694,2.27,2.2701,2.2726,2.2737,2.2752,2.2754,2.2759,2.2762,2.2761,2.2768,2.2769,2.2769,2.2772,2.2773,2.2763,2.2763,2.2763,2.2763,0,2.26,2.2613,2.262,2.264,2.265,2.2661,2.2676,2.2684,2.2691,2.2701,2.2715,2.2728,2.2742,2.2746,2.2753,2.2763,2.2763,2.2766,2.2767,2.2769,2.2772,2.2773,2.2763,2.2763,2.2763,2.2763,0,0,2.2594,2.2623,2.2625,2.2634,2.2654,2.2664,2.2676,2.2691,2.2698,2.2711,2.2721,2.2738,2.2741,2.2749,2.2757,2.2763,2.2768,2.2765,2.2766,2.2766,2.2779,2.2777,2.2778,2.2771,2.2772,2.2772,2.2778,0,2.2599,2.2621,2.2634,2.2651,2.2663,2.2675,2.2685,2.2697,2.2707,2.2718,2.2728,2.274,2.2743,2.2749,2.2755,2.2766,2.2771,2.2765,2.278,2.278,2.2776,2.278,2.2777,2.2783,2.2779,2.278,2.278,0,2.2607,2.2622,2.264,2.266,2.2665,2.2674,2.269,2.2701,2.2715,2.2722,2.2732,2.274,2.2752,2.2752,2.2769,2.2765,2.2771,2.2777,2.2778,2.278,2.278,2.2782,2.2785,2.2786,2.2781,2.2781,2.2781,0,2.2601,2.2625,2.264,2.2647,2.267,2.2676,2.2686,2.2701,2.271,2.2723,2.2729,2.2742,2.275,2.276,2.2771,2.2771,2.2786,2.2788,2.2792,2.2792,2.2795,2.2794,2.2799,2.2798,2.2798,2.2798,2.2798,0,2.2605,2.2616,2.2638,2.2646,2.2659,2.2673,2.2685,2.2695,2.2708,2.2719,2.2729,2.2738,2.2752,2.2763,2.2772,2.2784,2.2787,2.2792,2.2794,2.2792,2.2791,2.2796,2.2796,2.2799,2.2799,2.2799,2.2799,0,2.2601,2.2616,2.2632,2.2653,2.2659,2.2667,2.2684,2.2693,2.2703,2.2716,2.272,2.2736,2.2749,2.2762,2.2779,2.2785,2.2797,2.28,2.2793,2.2794,2.2798,2.2797,2.2806,2.2808,2.2806,2.2806,2.2806,0,2.2603,2.2612,2.2634,2.2642,2.2652,2.2665,2.2675,2.2689,2.2698,2.2716,2.2722,2.2737,2.2749,2.277,2.2782,2.2796,2.2799,2.2801,2.2801,2.2798,2.2799,2.2799,2.28,2.2801,2.2801,2.2801,2.2801,0,2.2604,2.2611,2.2625,2.2642,2.2653,2.2667,2.268,2.2686,2.2703,2.2713,2.2727,2.2737,2.2756,2.277,2.2785,2.2793,2.28,2.2801,2.2803,2.28,2.2796,2.2798,2.2793,2.2801,2.2801,2.2801,2.2801,2.2801,2.2603,2.2612,2.2629,2.2645,2.2657,2.2669,2.2679,2.2691,2.2704,2.2721,2.2728,2.2743,2.2758,2.2779,2.2787,2.2799,2.28,2.2802,2.2803,2.2803,2.2803,2.2794,2.2801,2.2801,2.2801,2.2801,2.2801,0,2.2605,2.2618,2.2632,2.2651,2.2663,2.267,2.2685,2.2694,2.2708,2.2721,2.2734,2.2751,2.2764,2.2778,2.2793,2.2799,2.2802,2.2802,2.2802,2.2804,2.2801,2.2798,2.2799,2.2799,2.2799,2.2799,2.2799,2.2799,2.2608,2.2624,2.2633,2.2654,2.2666,2.2682,2.269,2.2702,2.2713,2.2732,2.2744,2.2753,2.2767,2.2783,2.2795,2.2799,2.2804,2.2803,2.2808,2.2804,2.2804,2.2804,2.2802,2.2804,2.2804,2.281,2.281,2.281]}]]